VIASAT 2

导读 | 星芒AI

VIASAT 2 是一颗由美国公司 ViaSat 运营的高吞吐量通信卫星,于 2013 年发射,主要提供高速宽带互联网服务。该卫星位于西经 107.5 度的轨道位置,覆盖北美、中美洲和加勒比地区。VIASAT 2 采用先进的 Ka 波段技术,显著提升了数据传输速度和网络容量,支持更多用户同时在线。它为住宅和企业用户提供可靠的互联网接入,尤其在偏远地区发挥重要作用。

基本信息
目录编号:
42740
目录名称:
VIASAT 2
国际标识:
2017-029A
轨道中心:
EARTH
卫星名称:
VIASAT 2
卫星全名:
--
卫星状态:
在轨 (已飞行3074 天)
发射日期:
2017-06-01 UTC
国别 :
美国 (US)
星等 :
--
轨道信息
数据来源 国际轨道数据 AOE轨道数据
星历时间 2025-10-30T20:39:33+0800
1天前
查看轨道信息
2025-10-30T16:00:00+0800
1天前
查看轨道信息
半长轴 42163.775km 42165.093km
偏心率 0.0000233 0.0000214
轨道倾角 0.021° 0.018°
近地点辐角 238.053° 201.184°
升交点赤经 267.953° 268.273°
平近点角 13.113° 339.579°
近地点 35784.657km 35786.055km
远地点 35786.623km 35787.861km
周期 1436.048分钟 1436.115分钟
每日圈数 1.002752 1.002705
详细信息
使用方式:
暂无
2D轨道图
3D轨道图
轨道高度分析图
轨道倾角分析图
轨道综合分析图
查看轨道综合分析图